Skip Page Navigation
NASA JPL Caltech
NASA Logo - Jet Propulsion Laboratory + View the NASA Portal
+ Center for Near-Earth Object Studies
JPL Home Earth Solar System Stars & Galaxies Technology
JPL Solar System Dynamics
BODIES ORBITS EPHEMERIDES TOOLS PHYSICAL DATA DISCOVERY FAQ SITE MAP
IMPORTANT: The SSD Announcement email list is now available. Major changes are coming in the near future, including possible hostname and/or URL changes. To be notified of such changes, subscribe to this email list.

Please visit this page for more details.


JPL Small-Body Database Browser
Search: [ help ]  
(2015 DB199)
Classification: Amor [NEO]          SPK-ID: 3712535
Ephemeris | Orbit Diagram | Orbital Elements | Mission Design | Physical Parameters | Close-Approach Data ]

[ hide orbit diagram ]

For accurate long-term ephemerides, please instead use our Horizons system.This orbit viewer was implemented using two-body methods, and hence should not be used for determining accurate long-term trajectories (over several years or decades) or planetary encounter circumstances.


[ revert to old Java-based viewer ]

Orbital Elements at Epoch 2457080.5 (2015-Feb-27.0) TDB
Reference: JPL 7 (heliocentric ecliptic J2000)
 Element Value Uncertainty (1-sigma)   Units 
e .5192231518908771 0.0013483  
a 2.2657496335351 0.006806 au
q 1.089319967415406 0.00021736 au
i .7687036303244908 0.0015555 deg
node 57.29311076461173 0.0099758 deg
peri 117.345884128966 0.0045057 deg
M 355.3108638985081 0.019258 deg
tp 2457096.725819556817
(2015-Mar-15.22581956)
0.006529 TDB
period 1245.708146239482
3.41
5.6129
0.01537
d
yr
n .2889922499798694 0.0013021 deg/d
Q 3.442179299654795 0.01034 au
  Orbit Determination Parameters
   # obs. used (total)      18  
   data-arc span      20 days  
   first obs. used      2015-02-21  
   last obs. used      2015-03-13  
   planetary ephem.      DE431  
   SB-pert. ephem.      SB431-N16  
   condition code      8  
   norm. resid. RMS      .52966  
   source      ORB  
   producer      Otto Matic  
   solution date      2017-Apr-06 08:35:22  

Additional Information
 Earth MOID = .0953985 au 
 Jupiter MOID = 1.52701 au 
 T_jup = 3.424 
[ show covariance matrix ]

Ephemeris | Orbit Diagram | Orbital Elements | Mission Design | Physical Parameters | Close-Approach Data ]

Physical Parameter Table
Parameter Symbol Value Units Sigma Reference Notes
absolute magnitude H 24.9   n/a MPO335378  

[ show close-approach data ]
Ephemeris | Orbit Diagram | Orbital Elements | Mission Design | Physical Parameters | Close-Approach Data ]
ABOUT SSD CREDITS/AWARDS PRIVACY/COPYRIGHT GLOSSARY LINKS
FirstGov 2019-Oct-19 11:11 UT
(server date/time)  
NASA Home Page
Site Manager:   Ryan S. Park
Webmaster  Alan B. Chamberlin